sat.trackr.live / text

‹ back to catalog

STARLINK-1454

NORAD 45671 · 2020-035Q

PAYLOAD ACTIVE UNKNOWN

§ Identity

Operator
Country
US
Launch date
2020-06-04
Launch site
AFETR
Launch vehicle
Mass (kg)
RCS (m²)

Purposes: comms

External: N2YO · Heavens-Above · Gunter

§ Orbital elements

Epoch: 2026-09-20T06:00:02.000160Z

Period
90.47 min
Inclination
53.0338°
Eccentricity
0.0004946
Mean motion
15.91683768 rev/d
Perigee alt
294.3 km
Apogee alt
300.9 km
Semi-major
6,675.7 km
B*
6.6666e-4
RAAN
170.8562°
Arg perigee
103.6405°
Mean anomaly
336.0155°
Rev number
607

§ Raw data

STARLINK-14541 45671U 20035Q   26263.25002315  .00219804  29090-4  66666-3 0  99912 45671  53.0338 170.8562 0004946 103.6405 336.0155 15.91683768  6078

JSON: /api/v1/satellites/45671 · /tle

For live sub-satellite position, see the globe view (requires WebGL).

§ Visibility from observer

Set your observer location to see the next 7 days of passes ≥ 10°. The values pass through the URL so the page stays shareable.

No JS? Fill the form by hand. The geolocation button needs JavaScript.